Hourly Data Report for July 30, 2020

OTTAWA INTL A
ONTARIO
Current Station Operator: NAVCAN

45°19'00.000" N
75°40'00.000" W
114.90 m
6106001
71628
YOW

Download Data

Hourly Data (July 2020)
Hourly Data Report for July 30, 2020
TIME Temp Definition
°C
Dew Point Definition
°C
Rel Hum Definition
%
Wind Dir Definition
10's deg

Wind Spd Definition
km/h
Visibility Definition
km
Stn Press Definition
kPa
Hmdx Definition


Wind Chill Definition


Weather Definition


00:00 17.1 16.6 97 20 9 24.1 99.58     LegendNANA
01:00 16.9 16.6 98 20 8 24.1 99.59     Mainly Clear
02:00 16.7 16.5 98 31 4 24.1 99.55     LegendNANA
03:00 15.9 15.7 99 24 7 24.1 99.57     LegendNANA
04:00 15.5 15.3 99 21 9 24.1 99.60     Mainly Clear
05:00 15.1 15.0 99 24 5 24.1 99.63     LegendNANA
06:00 16.2 16.0 99 25 6 24.1 99.67     LegendNANA
07:00 18.8 18.1 95 26 8 24.1 99.67     Clear
08:00 21.1 17.8 81 31 7 24.1 99.68 27   LegendNANA
09:00 22.5 17.2 72 23 11 24.1 99.71 28   LegendNANA
10:00 24.2 16.3 61 26 14 24.1 99.72 29   Mainly Clear
11:00 26.0 15.6 52 30 17 24.1 99.69 30   LegendNANA
12:00 26.3 15.7 51 30 13 24.1 99.64 31   LegendNANA
13:00 26.4 15.1 49 20 7 24.1 99.59 30   Mostly Cloudy
14:00 25.9 14.5 49 22 10 24.1 99.60 30   LegendNANA
15:00 21.5 17.7 79 32 18 24.1 99.65 27   Thunderstorms,Rain Showers
16:00 21.1 18.1 83 32 10 24.1 99.68 27   Rain Showers
17:00 21.2 18.8 86 22 7 24.1 99.61 28   LegendNANA
18:00 23.4 18.2 72 24 8 24.1 99.64 30   LegendNANA
19:00 21.3 18.4 83 20 10 24.1 99.71 28   Mainly Clear
20:00 19.4 18.2 93 20 9 24.1 99.78     Thunderstorms
21:00 18.2 17.3 94 23 4 24.1 99.81     LegendNANA
22:00 18.4 17.8 96 23 7 24.1 99.78     Mainly Clear
23:00 17.6 17.1 97 31 5 24.1 99.78     LegendNANA

Notes on Data Quality.

Legend

  • E = Estimated
  • M = Missing
  • NA = Not Available*
  • [empty] = Indicates an unobserved value
Date modified: